Location: Wildlife_Club
(35.6000°N, 81.4330°W)
Time: 12:18:05
(UTC-04:00)

Vanguard 2 Rocket - Pass Details

Date: 24 June 2019
Orbit: 553 x 3327 km, 32.9° (Epoch: 21 August)

Event Time Altitude Azimuth Distance (km) Brightness Sun altitude
Rises 04:26:21 0° 281° (WNW) 5,720 10.7 -17.5°
Reaches altitude 10° 04:29:53 10° 275° (W) 5,041 10.3 -17.0°
Maximum altitude 04:44:21 44° 211° (SSW) 3,890 9.6 -14.9°
Drops below altitude 10° 05:02:40 10° 148° (SSE) 6,235 11.1 -12.2°
Sets 05:07:45 0° 142° (SE) 7,131 11.4 -11.4°
